This demonstration page uses our WeatherBlox Daily Observations layout. Learn more.

Left ArrowRight Arrow

Hourly Observations for August 27, 2015

Temp ( °F °C ) Dew Point ( °F °C ) Humidity (%) Winds ( mph kmh ) Pressure ( in mb ) Visibility ( mi km ) Precip ( " mm )
12:53 am 00:53 Clear 80 26.7 46 7.8 30 30 NNW 6 9 29.93 1014 10 16 0.00 0.00
1:53 am 01:53 Clear 75 23.9 47 8.3 37 37 N 6 9 29.94 1014 10 16 0.00 0.00
2:53 am 02:53 Clear 72 22.2 48 8.9 43 43 Calm 29.95 1014 10 16 0.00 0.00
3:53 am 03:53 Clear 69 20.6 47 8.3 45 45 Calm 29.96 1014 10 16 0.00 0.00
4:53 am 04:53 Clear 67 19.4 49 9.4 53 53 Calm 29.97 1015 10 16 0.00 0.00
5:53 am 05:53 Clear 65 18.3 50 10 59 59 Calm 29.99 1016 10 16 0.00 0.00
6:53 am 06:53 Sunny 64 17.8 48 8.9 56 56 N 5 7 30.01 1016 10 16 0.00 0.00
7:53 am 07:53 Sunny 73 22.8 50 10 44 44 Calm 30.01 1016 10 16 0.00 0.00
8:53 am 08:53 Sunny 79 26.1 50 10 36 36 NNW 3 6 30.01 1016 10 16 0.00 0.00
9:53 am 09:53 Sunny 85 29.4 48 8.9 28 28 Calm 30.01 1016 10 16 0.00 0.00
10:53 am 10:53 Sunny 88 31.1 48 8.9 25 25 ESE 3 6 30.01 1016 10 16 0.00 0.00
11:53 am 11:53 Sunny 91 32.8 47 8.3 22 22 W 3 6 29.99 1016 10 16 0.00 0.00
12:53 pm 12:53 Sunny 94 34.4 46 7.8 19 19 S 7 11 29.97 1015 10 16 0.00 0.00
1:53 pm 13:53 Sunny 96 35.6 44 6.7 17 17 undefined N/A 29.95 1014 10 16 0.00 0.00
2:53 pm 14:53 Sunny 97 36.1 42 5.6 15 15 SE 9 15 29.93 1014 10 16 0.00 0.00
3:53 pm 15:53 Sunny 99 37.2 42 5.6 14 14 SSE 9 15 29.91 1013 10 16 0.00 0.00
4:53 pm 16:53 Sunny 100 37.8 42 5.6 14 14 SE 12 19 29.89 1012 10 16 0.00 0.00
5:53 pm 17:53 Sunny 100 37.8 44 6.7 15 15 SSE 13 20 29.87 1012 10 16 0.00 0.00
6:53 pm 18:53 Sunny 96 35.6 44 6.7 17 17 SSE 8 13 29.87 1011 10 16 0.00 0.00
7:53 pm 19:53 Clear 93 33.9 46 7.8 20 20 SW 3 6 29.86 1011 10 16 0.00 0.00
8:53 pm 20:53 Clear 87 30.6 48 8.9 26 26 Calm 29.87 1012 10 16 0.00 0.00
9:53 pm 21:53 Clear 86 30 48 8.9 27 27 S 6 9 29.89 1012 10 16 0.00 0.00
10:53 pm 22:53 Clear 80 26.7 49 9.4 34 34 WNW 3 6 29.89 1012 10 16 0.00 0.00
11:53 pm 23:53 Clear 78 25.6 49 9.4 36 36 Calm 29.88 1012 10 16 0.00 0.00

Powered by AerisWeather